Погода в Тулбаге

ЮАР     33°17′14″S   19°08′19″E
темп.,
°C
ветер,
м/с
пор.,
м/с
влажн.,
%
обл.,
%
осадки,
мм/ч
давл.,
гПа
погр.,
м
29 января, сб
сб2923:00+17вюв44600 0.0 1016145
02:00+15в43690 0.0 101592
05:00+14в33520 0.0 101541
08:00+21в23270 0.0 1015290
11:00+28ююв11190 0.0 10141216
14:00+33юз32120 0.0 10112310
17:00+34юз33110 0.0 10092454
20:00+25ююз23260 0.0 101136
30 января, вс
вс3023:00+19вюв44540 0.0 101398
02:00+19в33545 0.0 101261
05:00+20всв33382 0.0 101130
08:00+26в22240 0.0 1011242
11:00+33ю22140 0.0 10101589
14:00+37юз54110 0.0 10073032
17:00+36ююв551117 0.0 10063001
20:00+28юв4530100 0.0 100886
31 января, пн
пн3123:00+23вюв224967 0.0 101063
02:00+22юв225461 0.0 101037
05:00+23в114989 0.0 101018
08:00+26ю113799 0.0 1011238
11:00+30з222994 0.0 10111934
14:00+29зсз1133100 0.0 10101083
17:00+28ю2237100 0.0 1009594
20:00+26св1143100 0.0 101046
1 февраля, вт
вт123:00+23св225755 0.0 101279
02:00+21св116760 0.0 101123
05:00+21ссв116568 0.0 101023
08:00+23ююз005756 0.0 1011242
11:00+27ссз024253 0.0 10101335
14:00+31сз343271 0.0 10082195
17:00+29зюз323998 0.0 1007920
20:00+26з1252100 0.0 100994
2 февраля, ср
ср223:00+23з11680 0.3 101014
02:00+20ссз01814 1.4 100915
05:00+19сз11850 1.3 100917
08:00+21з227923 1.5 1010355
11:00+25з335922 0.3 10091038
14:00+28з354884 0.6 10081771
17:00+27з454814 0.1 10071535
20:00+23зюз336524 0.1 1009591